Wetterdaten: aktuell Sonntag, 24.03.2019 10:20
Datum Zeit Temp. A. Feuchte A. Luftdruck Regen Wind Richtung Richtung Windben
24.03.2019 10:20 17,6 C 46 % 1022,7 hPa 0,0 l/m 0,0 km/h S-SW 211 0,0 km/h
24.03.2019 10:15 17,6 C 47 % 1022,9 hPa 0,0 l/m 0,0 km/h SW 214 1,6 km/h
24.03.2019 10:10 17,5 C 48 % 1022,9 hPa 0,0 l/m 0,0 km/h S-SW 201 0,0 km/h
24.03.2019 10:09 17,5 C 48 % 1022,9 hPa 0,0 l/m 0,0 km/h SW 214 3,2 km/h
24.03.2019 10:04 17,3 C 47 % 1023,0 hPa 0,0 l/m 0,0 km/h S 183 0,0 km/h
24.03.2019 10:00 16,8 C 52 % 1023,1 hPa 0,0 l/m 0,0 km/h S 169 0,0 km/h
24.03.2019 09:55 16,5 C 51 % 1023,1 hPa 0,0 l/m 0,0 km/h S 181 0,0 km/h
24.03.2019 09:50 16,2 C 50 % 1023,2 hPa 0,0 l/m 0,0 km/h S 179 0,0 km/h
24.03.2019 09:45 16,2 C 52 % 1023,3 hPa 0,0 l/m 0,0 km/h S 174 0,0 km/h
24.03.2019 09:44 16,2 C 53 % 1023,3 hPa 0,0 l/m 0,0 km/h S 174 0,0 km/h
24.03.2019 09:40 16,0 C 54 % 1023,4 hPa 0,0 l/m 0,0 km/h SO 146 0,0 km/h
24.03.2019 09:39 16,0 C 53 % 1023,4 hPa 0,0 l/m 0,0 km/h SO 146 0,0 km/h
24.03.2019 09:35 16,1 C 56 % 1023,4 hPa 0,0 l/m 0,0 km/h S 185 0,0 km/h
24.03.2019 09:30 15,5 C 55 % 1023,5 hPa 0,0 l/m 0,0 km/h S 183 0,0 km/h
24.03.2019 09:25 15,0 C 58 % 1023,6 hPa 0,0 l/m 0,0 km/h S 183 0,0 km/h
24.03.2019 09:20 14,6 C 58 % 1023,7 hPa 0,0 l/m 0,0 km/h S-SO 162 0,0 km/h
24.03.2019 09:14 14,2 C 57 % 1023,7 hPa 0,0 l/m 0,0 km/h S-SO 154 0,0 km/h
24.03.2019 09:10 14,1 C 57 % 1023,7 hPa 0,0 l/m 0,0 km/h S-SO 151 0,0 km/h
24.03.2019 09:09 14,0 C 58 % 1023,7 hPa 0,0 l/m 0,0 km/h S-SO 151 0,0 km/h
24.03.2019 09:05 13,7 C 64 % 1023,8 hPa 0,0 l/m 0,0 km/h SO 133 0,0 km/h
24.03.2019 09:00 13,1 C 63 % 1023,9 hPa 0,0 l/m 0,0 km/h SO 133 0,0 km/h
24.03.2019 08:55 13,1 C 63 % 1023,9 hPa 0,0 l/m 0,0 km/h SO 133 0,0 km/h
24.03.2019 08:50 12,7 C 65 % 1024,0 hPa 0,0 l/m 0,0 km/h SO 139 0,0 km/h
24.03.2019 08:44 12,2 C 64 % 1024,1 hPa 0,0 l/m 0,0 km/h SO 144 0,0 km/h
24.03.2019 08:39 11,8 C 64 % 1024,2 hPa 0,0 l/m 0,0 km/h SO 144 0,0 km/h
24.03.2019 08:35 11,7 C 67 % 1024,2 hPa 0,0 l/m 0,0 km/h S-SO 147 0,0 km/h
24.03.2019 08:30 11,4 C 65 % 1024,2 hPa 0,0 l/m 0,0 km/h S-SO 147 0,0 km/h
24.03.2019 08:24 11,1 C 67 % 1024,2 hPa 0,0 l/m 0,0 km/h S-SO 147 0,0 km/h
24.03.2019 08:20 10,9 C 70 % 1024,2 hPa 0,0 l/m 0,0 km/h SO 129 0,0 km/h
24.03.2019 08:15 10,4 C 73 % 1024,2 hPa 0,0 l/m 0,0 km/h SO 129 0,0 km/h
24.03.2019 08:10 9,9 C 76 % 1024,2 hPa 0,0 l/m 0,0 km/h N 349 0,0 km/h
24.03.2019 08:05 9,4 C 76 % 1024,2 hPa 0,0 l/m 0,0 km/h N 349 0,0 km/h
24.03.2019 08:04 9,4 C 76 % 1024,2 hPa 0,0 l/m 0,0 km/h N 349 0,0 km/h
24.03.2019 08:00 9,1 C 76 % 1024,2 hPa 0,0 l/m 0,0 km/h N 349 0,0 km/h
24.03.2019 07:55 8,9 C 77 % 1024,2 hPa 0,0 l/m 0,0 km/h N 349 0,0 km/h
24.03.2019 07:50 8,9 C 77 % 1024,2 hPa 0,0 l/m 0,0 km/h N 349 0,0 km/h
24.03.2019 07:45 8,4 C 80 % 1024,2 hPa 0,0 l/m 0,0 km/h N 349 0,0 km/h
24.03.2019 07:40 7,9 C 79 % 1024,2 hPa 0,0 l/m 0,0 km/h N 349 0,0 km/h
24.03.2019 07:35 7,3 C 81 % 1024,2 hPa 0,0 l/m 0,0 km/h N 349 0,0 km/h
24.03.2019 07:30 6,7 C 81 % 1024,3 hPa 0,0 l/m 0,0 km/h N 349 0,0 km/h
24.03.2019 07:24 6,4 C 83 % 1024,2 hPa 0,0 l/m 0,0 km/h N 349 0,0 km/h
24.03.2019 07:20 5,9 C 83 % 1024,3 hPa 0,0 l/m 0,0 km/h N 349 0,0 km/h
24.03.2019 07:15 5,5 C 84 % 1024,3 hPa 0,0 l/m 0,0 km/h N 349 0,0 km/h
24.03.2019 07:10 4,9 C 84 % 1024,3 hPa 0,0 l/m 0,0 km/h N 349 0,0 km/h
24.03.2019 07:09 4,9 C 84 % 1024,3 hPa 0,0 l/m 0,0 km/h N 349 0,0 km/h
24.03.2019 07:04 4,8 C 84 % 1024,4 hPa 0,0 l/m 0,0 km/h N 349 0,0 km/h
24.03.2019 07:00 4,7 C 85 % 1024,3 hPa 0,0 l/m 0,0 km/h N 349 0,0 km/h
24.03.2019 06:55 4,5 C 84 % 1024,3 hPa 0,0 l/m 0,0 km/h N 349 0,0 km/h
24.03.2019 06:50 4,6 C 84 % 1024,3 hPa 0,0 l/m 0,0 km/h N 357 0,0 km/h
24.03.2019 06:45 4,6 C 84 % 1024,4 hPa 0,0 l/m 0,0 km/h N 357 0,0 km/h
24.03.2019 06:40 4,6 C 84 % 1024,3 hPa 0,0 l/m 0,0 km/h N 357 0,0 km/h
24.03.2019 06:35 4,6 C 84 % 1024,3 hPa 0,0 l/m 0,0 km/h N 357 0,0 km/h
24.03.2019 06:34 4,6 C 84 % 1024,3 hPa 0,0 l/m 0,0 km/h N 357 0,0 km/h
24.03.2019 06:30 4,5 C 84 % 1024,3 hPa 0,0 l/m 0,0 km/h N 357 0,0 km/h
24.03.2019 06:25 4,5 C 83 % 1024,3 hPa 0,0 l/m 0,0 km/h N 357 0,0 km/h
24.03.2019 06:20 4,5 C 83 % 1024,3 hPa 0,0 l/m 0,0 km/h N 357 0,0 km/h
24.03.2019 06:15 4,6 C 83 % 1024,3 hPa 0,0 l/m 0,0 km/h N 357 0,0 km/h
24.03.2019 06:14 4,6 C 83 % 1024,3 hPa 0,0 l/m 0,0 km/h N 357 0,0 km/h
24.03.2019 06:10 4,7 C 82 % 1024,3 hPa 0,0 l/m 0,0 km/h N 357 0,0 km/h
24.03.2019 06:05 4,8 C 82 % 1024,3 hPa 0,0 l/m 0,0 km/h N 357 0,0 km/h
24.03.2019 06:00 5,0 C 82 % 1024,3 hPa 0,0 l/m 0,0 km/h N 357 0,0 km/h
24.03.2019 05:59 5,0 C 82 % 1024,3 hPa 0,0 l/m 0,0 km/h N 357 0,0 km/h
24.03.2019 05:55 5,1 C 82 % 1024,3 hPa 0,0 l/m 0,0 km/h N 357 0,0 km/h
24.03.2019 05:54 5,1 C 81 % 1024,3 hPa 0,0 l/m 0,0 km/h N 357 0,0 km/h
24.03.2019 05:50 5,2 C 83 % 1024,4 hPa 0,0 l/m 0,0 km/h N 357 0,0 km/h
24.03.2019 05:45 5,1 C 83 % 1024,3 hPa 0,0 l/m 0,0 km/h N 357 0,0 km/h
24.03.2019 05:40 5,0 C 83 % 1024,3 hPa 0,0 l/m 0,0 km/h N 357 0,0 km/h
24.03.2019 05:35 4,8 C 84 % 1024,4 hPa 0,0 l/m 0,0 km/h N 357 0,0 km/h
24.03.2019 05:30 4,7 C 83 % 1024,4 hPa 0,0 l/m 0,0 km/h N 357 0,0 km/h
24.03.2019 05:25 4,7 C 83 % 1024,4 hPa 0,0 l/m 0,0 km/h N 357 0,0 km/h
24.03.2019 05:20 4,7 C 83 % 1024,5 hPa 0,0 l/m 0,0 km/h N 357 0,0 km/h
24.03.2019 05:19 4,7 C 83 % 1024,5 hPa 0,0 l/m 0,0 km/h N 357 0,0 km/h
24.03.2019 05:15 4,8 C 83 % 1024,4 hPa 0,0 l/m 0,0 km/h N 357 0,0 km/h
24.03.2019 05:09 4,8 C 82 % 1024,4 hPa 0,0 l/m 0,0 km/h N 357 0,0 km/h
24.03.2019 05:05 4,8 C 81 % 1024,4 hPa 0,0 l/m 0,0 km/h N 357 0,0 km/h
24.03.2019 05:00 5,0 C 81 % 1024,4 hPa 0,0 l/m 0,0 km/h N 357 0,0 km/h
24.03.2019 04:55 5,3 C 82 % 1024,3 hPa 0,0 l/m 0,0 km/h N 357 0,0 km/h
24.03.2019 04:50 5,2 C 83 % 1024,3 hPa 0,0 l/m 0,0 km/h N 357 0,0 km/h
24.03.2019 04:45 5,2 C 82 % 1024,4 hPa 0,0 l/m 0,0 km/h N 357 0,0 km/h
24.03.2019 04:40 5,1 C 83 % 1024,4 hPa 0,0 l/m 0,0 km/h N 357 0,0 km/h
24.03.2019 04:35 5,1 C 82 % 1024,4 hPa 0,0 l/m 0,0 km/h N 357 0,0 km/h
24.03.2019 04:30 5,1 C 82 % 1024,4 hPa 0,0 l/m 0,0 km/h N 357 0,0 km/h
24.03.2019 04:25 5,1 C 83 % 1024,3 hPa 0,0 l/m 0,0 km/h N 357 0,0 km/h
24.03.2019 04:24 5,1 C 83 % 1024,3 hPa 0,0 l/m 0,0 km/h N 357 0,0 km/h
24.03.2019 04:20 4,9 C 83 % 1024,4 hPa 0,0 l/m 0,0 km/h N 357 0,0 km/h
24.03.2019 04:15 4,9 C 83 % 1024,4 hPa 0,0 l/m 0,0 km/h N 357 0,0 km/h
24.03.2019 04:14 4,9 C 83 % 1024,4 hPa 0,0 l/m 0,0 km/h N 357 0,0 km/h
24.03.2019 04:10 4,8 C 83 % 1024,5 hPa 0,0 l/m 0,0 km/h N 357 0,0 km/h
24.03.2019 04:09 4,8 C 83 % 1024,5 hPa 0,0 l/m 0,0 km/h N 357 0,0 km/h
24.03.2019 04:05 4,8 C 82 % 1024,5 hPa 0,0 l/m 0,0 km/h N 357 0,0 km/h
24.03.2019 04:00 4,9 C 82 % 1024,5 hPa 0,0 l/m 0,0 km/h N 357 0,0 km/h
24.03.2019 03:55 5,0 C 82 % 1024,5 hPa 0,0 l/m 0,0 km/h N 357 0,0 km/h
24.03.2019 03:54 5,0 C 82 % 1024,5 hPa 0,0 l/m 0,0 km/h N 357 0,0 km/h
24.03.2019 03:49 4,9 C 82 % 1024,5 hPa 0,0 l/m 0,0 km/h N 357 0,0 km/h
24.03.2019 03:45 4,9 C 81 % 1024,5 hPa 0,0 l/m 0,0 km/h N 357 0,0 km/h
24.03.2019 03:40 5,1 C 81 % 1024,5 hPa 0,0 l/m 0,0 km/h N 357 0,0 km/h
24.03.2019 03:35 5,2 C 82 % 1024,5 hPa 0,0 l/m 0,0 km/h N 357 0,0 km/h
_ Min-Zeit 06:20 13:20 10:20 - 11:00 - - 11:00
Minimum _ 4,5 C 41 % 1022,7 hPa - 0,0 km/h - - 0,0 km/h
_ Max-Zeit 14:30 07:00 11:00 11:00 19:29 - - 13:40
Maximum _ 18,6 C 85 % 1028,6 hPa 0,0 l/m 0,5 km/h
N
- - 12,9 km/h
S
Durchschnitt _ 11,4 C 62 % 1025,9 hPa #0,0 l/m 0,0 km/h N - 0,5 km/h